Flag for U.S.A. Weather past 2 weeks in Norwalk, California, U.S.A.

Now
60 °F

Clear.


Feels Like: 60 °F
Forecast: 56 / 79 °F
Wind: No wind

Location: Fullerton Municipal Airport


UV Index: 5 (Moderate)

Visibility: 9 mi


Pressure: 30.03 "Hg

Humidity: 80%

Dew point: 54 °F

Location of NorwalkLocation

Historic Weather in Norwalk

°F

Norwalk temperature yesterday

Maximum temperature yesterday: 77 °F (at 3:53 PM)
Minimum temperature yesterday: 57 °F (at 5:53 AM)
Average temperature yesterday: 66 °F

Past Weeks' High & Low Weather Summary

 TemperatureHumidityPressure
High94 °F (Apr 8, 2:53 PM)87% (Apr 15, 2:53 AM)30.09 "Hg (Apr 15, 2:53 AM)
Low51 °F (Apr 6, 4:53 AM)10% (Apr 8, 3:53 PM)29.78 "Hg (Apr 16, 4:53 PM)
Average66 °F57%29.95 "Hg
* Reported Apr 5 12:53 AM — Apr 20 12:53 AM, Norwalk, Weather by CustomWeather, © 2014

Note: Actual official high and low records may vary slightly from our data, if they occured in-between our weather recording intervals... More about our weather records

Advertising

Historic Weather Conditions — Data for Previous 24 hours

 ConditionsComfort  
Time TempWeatherWind HumidityBarometerVisibility
12:53 AM
Apr 20
61 °FClear.3 mph78%30.03 "Hg10 mi
11:53 PM
Apr 19
61 °FClear.3 mph78%30.04 "Hg10 mi
10:53 PM63 °FClear.5 mph73%30.04 "Hg10 mi
9:53 PM64 °FClear.7 mph73%30.01 "Hg10 mi
8:53 PM65 °FClear.No wind66%30.00 "Hg10 mi
7:53 PM66 °FSunny.3 mph63%29.98 "Hg10 mi
6:53 PM69 °FSunny.8 mph55%29.97 "Hg10 mi
5:53 PM71 °FSunny.6 mph53%29.96 "Hg10 mi
4:53 PM76 °FSunny.7 mph45%29.95 "Hg10 mi
3:53 PM77 °FSunny.3 mph44%29.94 "Hg10 mi
2:53 PM75 °FSunny.7 mph47%29.96 "Hg10 mi
1:53 PM75 °FSunny.7 mph48%29.97 "Hg10 mi
12:53 PM72 °FSunny.7 mph55%29.98 "Hg10 mi
11:53 AM70 °FSunny.6 mph57%29.99 "Hg10 mi
10:53 AM71 °FSunny.5 mph55%29.99 "Hg10 mi
9:53 AM67 °FSunny.No wind63%29.98 "Hg10 mi
8:53 AM64 °FPassing clouds.3 mph73%29.97 "Hg8 mi
7:53 AM61 °FSunny.No wind81%29.96 "Hg7 mi
6:53 AM58 °FClear.No wind84%29.95 "Hg7 mi
5:53 AM57 °FClear.No wind87%29.94 "Hg8 mi
4:53 AM58 °FClear.No wind87%29.93 "Hg7 mi
3:53 AM59 °FClear.3 mph84%29.93 "Hg7 mi
2:53 AM59 °FClear.3 mph87%29.93 "Hg7 mi
Weather by CustomWeather, © 2014

See weather overview